Αρχική σελίδα
METAR-TAF:

METAR-TAF

Αεροδρόμια :

Strother Field

Winfield-Arkansas City, Κάνσας, Ηνωμένες Πολιτείες Αμερικής

γεωγραφικό πλάτος: 37-10-05N, γεωγραφικό μήκος: 097-02-13W, υψόμετρο: 353 μ

Παρών καιρός

Η αναφορά έγινε 1 ώρα και 2 λεπτά πριν, στις 09:54 UTC
Άνεμος 6 kt από Ν
Θερμοκρασία 22°C
Υγρασία 94%
Πίεση 1014 hPa
Ορατότητα: 16.1 χλμ
Καθαρός ουρανός

METAR: KWLD 190954Z AUTO 17006KT 10SM CLR 22/21 A2993 RMK AO2 SLP120 T02220206

Χρόνος: 05:56 (10:56 UTC)


TAF: λείπει

Μετεωρολογικές αναφορές και προγνώσεις για περισσότερα από 4000 αεροδρόμια (δελτία METAR και TAF).

Οι διαθέσιμοι σταθμοί απεικονίζονται στο χάρτη με κίτρινες και κόκκινες κουκκίδες.

Μετακινήστε το ποντίκι πάνω από τις κουκκίδες για να δείτε το όνομα του σταθμού.

Στη συνέχεια, κάντε κλικ για να δείτε τις μετεωρολογικές αναφορές και τις προγνώσεις καιρού.

Για να αλλάξετε το χάρτη: κάντε κλικ στα πράσινα κουμπιά με τον μαύρο σταυρό για να ζουμάρετε, στο πράσινο κουμπί με την παύλα για να αφαιρέσετε το ζουμ ή στα πράσινα βέλη για να αντιπαραβάλλετε χάρτες.


METAR-TAF: